Time,TemperatureF,DewpointF,PressureIn,WindDirection,WindDirectionDegrees,WindSpeedMPH,WindSpeedGustMPH,Humidity,HourlyPrecipIn,Conditions,Clouds,dailyrainin,SolarRadiationWatts/m^2,SoftwareType,DateUTC
2013-04-25 00:00:00,46.0,38.0,27.15,NNE,14,5.0,-999.0,74,-99.99,,,-99.99,0.000000,,2013-04-25 05:00:00,
2013-04-25 00:52:00,46.0,38.0,27.15,NNE,14,5.0,-999.0,74,-99.99,,,-99.99,0.000000,,2013-04-25 05:52:00,
2013-04-25 03:00:00,44.0,37.0,27.21,NNE,21,5.0,-999.0,78,-99.99,,,-99.99,0.000000,,2013-04-25 08:00:00,
2013-04-25 03:52:00,44.0,37.0,27.21,NNE,21,5.0,-999.0,78,-99.99,,,-99.99,0.000000,,2013-04-25 08:52:00,
2013-04-25 04:00:00,40.0,38.0,27.31,ENE,78,1.0,-999.0,93,-99.99,,,-99.99,0.000000,,2013-04-25 09:00:00,
2013-04-25 04:53:00,40.0,38.0,27.31,ENE,78,1.0,-999.0,93,-99.99,,,-99.99,0.000000,,2013-04-25 09:53:00,
2013-04-25 05:00:00,41.0,40.0,27.62,NE,36,0.0,-999.0,95,-99.99,,,-99.99,0.000000,,2013-04-25 10:00:00,
2013-04-25 05:53:00,41.0,40.0,27.62,NE,36,0.0,-999.0,95,-99.99,,,-99.99,0.000000,,2013-04-25 10:53:00,
2013-04-25 06:00:00,40.0,37.0,28.18,ENE,72,1.0,-999.0,92,-99.99,,,-99.99,0.380000,,2013-04-25 11:00:00,
2013-04-25 06:52:00,40.0,37.0,28.18,ENE,72,1.0,-999.0,92,-99.99,,,-99.99,0.380000,,2013-04-25 11:52:00,
2013-04-25 07:00:00,43.0,37.0,27.41,NE,44,1.0,-999.0,79,-99.99,,,-99.99,39.950001,,2013-04-25 12:00:00,
2013-04-25 07:52:00,43.0,37.0,27.41,NE,44,1.0,-999.0,79,-99.99,,,-99.99,39.950001,,2013-04-25 12:52:00,
2013-04-25 08:00:00,46.0,37.0,27.19,North,8,4.0,-999.0,72,-99.99,,,-99.99,160.399994,,2013-04-25 13:00:00,
2013-04-25 08:53:00,46.0,37.0,27.19,North,8,4.0,-999.0,72,-99.99,,,-99.99,160.399994,,2013-04-25 13:53:00,
2013-04-25 09:00:00,48.0,38.0,27.33,NNE,12,6.0,-999.0,68,-99.99,,,-99.99,450.200012,,2013-04-25 14:00:00,
2013-04-25 09:52:00,48.0,38.0,27.33,NNE,12,6.0,-999.0,68,-99.99,,,-99.99,450.200012,,2013-04-25 14:52:00,
2013-04-25 10:00:00,51.0,40.0,27.34,NNE,22,5.0,-999.0,64,-99.99,,,-99.99,632.099976,,2013-04-25 15:00:00,
2013-04-25 10:53:00,51.0,40.0,27.34,NNE,22,5.0,-999.0,64,-99.99,,,-99.99,632.099976,,2013-04-25 15:53:00,
2013-04-25 11:00:00,54.0,36.0,27.24,NNE,17,4.0,-999.0,49,-99.99,,,-99.99,796.000000,,2013-04-25 16:00:00,
2013-04-25 11:52:00,54.0,36.0,27.24,NNE,17,4.0,-999.0,49,-99.99,,,-99.99,796.000000,,2013-04-25 16:52:00,
2013-04-25 12:00:00,57.0,38.0,27.28,NNE,32,4.0,-999.0,49,-99.99,,,-99.99,904.000000,,2013-04-25 17:00:00,
2013-04-25 12:53:00,57.0,38.0,27.28,NNE,32,4.0,-999.0,49,-99.99,,,-99.99,904.000000,,2013-04-25 17:53:00,
2013-04-25 13:00:00,60.0,36.0,27.25,NE,50,4.0,-999.0,40,-99.99,,,-99.99,947.000000,,2013-04-25 18:00:00,
2013-04-25 13:53:00,60.0,36.0,27.25,NE,50,4.0,-999.0,40,-99.99,,,-99.99,947.000000,,2013-04-25 18:53:00,
2013-04-25 14:00:00,64.0,33.0,27.23,ENE,59,3.0,-999.0,32,-99.99,,,-99.99,935.000000,,2013-04-25 19:00:00,
2013-04-25 14:52:00,64.0,33.0,27.23,ENE,59,3.0,-999.0,32,-99.99,,,-99.99,935.000000,,2013-04-25 19:52:00,
2013-04-25 15:00:00,65.0,34.0,27.19,WNW,296,4.0,-999.0,31,-99.99,,,-99.99,861.000000,,2013-04-25 20:00:00,
2013-04-25 15:52:00,65.0,34.0,27.19,WNW,296,4.0,-999.0,31,-99.99,,,-99.99,861.000000,,2013-04-25 20:52:00,
2013-04-25 16:00:00,67.0,32.0,27.15,West,281,3.0,-999.0,27,-99.99,,,-99.99,729.000000,,2013-04-25 21:00:00,
2013-04-25 16:53:00,67.0,32.0,27.15,West,281,3.0,-999.0,27,-99.99,,,-99.99,729.000000,,2013-04-25 21:53:00,
2013-04-25 17:00:00,68.0,34.0,27.36,West,263,3.0,-999.0,29,-99.99,,,-99.99,500.899994,,2013-04-25 22:00:00,
2013-04-25 17:53:00,68.0,34.0,27.36,West,263,3.0,-999.0,29,-99.99,,,-99.99,500.899994,,2013-04-25 22:53:00,
2013-04-25 18:00:00,64.0,31.0,27.18,NW,310,4.0,-999.0,29,-99.99,,,-99.99,355.500000,,2013-04-25 23:00:00,
2013-04-25 18:52:00,64.0,31.0,27.18,NW,310,4.0,-999.0,29,-99.99,,,-99.99,355.500000,,2013-04-25 23:52:00,
2013-04-25 19:00:00,61.0,31.0,27.24,NNW,333,3.0,-999.0,32,-99.99,,,-99.99,146.000000,,2013-04-26 00:00:00,
2013-04-25 19:52:00,61.0,31.0,27.24,NNW,333,3.0,-999.0,32,-99.99,,,-99.99,146.000000,,2013-04-26 00:52:00,
2013-04-25 20:00:00,48.0,41.0,27.48,NE,55,1.0,-999.0,77,-99.99,,,-99.99,6.430000,,2013-04-26 01:00:00,
2013-04-25 20:52:00,48.0,41.0,27.48,NE,55,1.0,-999.0,77,-99.99,,,-99.99,6.430000,,2013-04-26 01:52:00,
2013-04-25 21:00:00,44.0,40.0,27.39,NE,35,2.0,-999.0,87,-99.99,,,-99.99,0.150000,,2013-04-26 02:00:00,
2013-04-25 21:52:00,44.0,40.0,27.39,NE,35,2.0,-999.0,87,-99.99,,,-99.99,0.150000,,2013-04-26 02:52:00,
2013-04-25 22:00:00,41.0,39.0,28.23,NE,37,2.0,-999.0,91,-99.99,,,-99.99,0.390000,,2013-04-26 03:00:00,
2013-04-25 22:53:00,41.0,39.0,28.23,NE,37,2.0,-999.0,91,-99.99,,,-99.99,0.390000,,2013-04-26 03:53:00,
2013-04-25 23:00:00,40.0,38.0,28.14,NNE,33,2.0,-999.0,94,-99.99,,,-99.99,0.250000,,2013-04-26 04:00:00,
2013-04-25 23:53:00,40.0,38.0,28.14,NNE,33,2.0,-999.0,94,-99.99,,,-99.99,0.250000,,2013-04-26 04:53:00,